STARLINK-30265 (57646 NORAD) Tracking and Keplerian Element Data

This shows tracking and keplerian element data for the satellite.

Feedback or suggestion? Click here.




ElementValue
Catalog57646
NameSTARLINK-30265
Epoch Orbit2384
Epoch Day13.13665574
Epoch Year2024
RAAN48.5556
Inclination43.0034
Eccentricity7.52E-05
Argument of Perigee232.4066
Mean Anonmoly127.6708
Mean Motion15.02535356
Decay Rate3.294E-05
L11 57646U 23122Q 24013.13665574 .00003294 00000+0 25883-3 0 9991
L22 57646 43.0034 48.5556 0000752 232.4066 127.6708 15.02535356 23847



Live tracking and technical data element details for STARLINK-30265 (NORAD 57646). STARLINK-30265 can be tracked NOW for your location showing map with azimuth and elevation plus other details from your city location.







IsCatalogInMostPopularTable: catalog: 57646, numindb: 30
Update: records affected: 1



GetName: 57646 STARLINK-30265

Hit Count: updated at: Thu, 29 Feb 2024 11:00:38 GMT